Regional Weather Roundup
Issued by NWS

Home | Current Version | Previous Version | Text Only | Print | Product List | Glossary On
Versions: 1 2 3 4 5 6 7 8 9 10 11 12 13 14 15 16 17 18 19 20 21 22 23 24 25 26 27 28 29 30 31 32 33 34 35 36 37 38 39 40 41 42 43 44 45 46 47 48 49 50
561
ASUS43 KDTX 231301
RWRMI
MICHIGAN HOURLY REGIONAL WEATHER ROUNDUP
NATIONAL WEATHER SERVICE DETROIT/PONTIAC MI
900 AM EDT MON OCT 23 2017

NOTE: "FAIR" INDICATES FEW OR NO CLOUDS BELOW 12,000 FEET WITH NO
SIGNIFICANT WEATHER AND/OR OBSTRUCTION TO VISIBILITY.

MIZ047>049-052>055-059>063-066>070-074>076-081>083-231400-
SOUTHEAST LOWER MICHIGAN

CITY           SKY/WX    TMP DP  RH WIND       PRES   REMARKS
ADRIAN         CLOUDY    60  51  72 CALM      29.88F
ALMA           RAIN      56  55  96 CALM      29.89R
ANN ARBOR      CLOUDY    62  52  69 S3        29.88F
BAD AXE        CLOUDY    61  52  72 S7        29.90F
CARO           CLOUDY    62  50  65 SE3       29.87F
DETROIT CITY   CLOUDY    64  53  67 S8        29.90F
DETROIT        CLOUDY    64  54  69 VRB7      29.89F
FLINT          CLOUDY    62  50  64 S8        29.87F
GROSSE ILE     CLOUDY    62  56  79 S7        29.90S
HILLSDALE      LGT RAIN  59  50  72 SE7       29.86S
HOWELL         CLOUDY    62  50  65 SE10      29.87F

CITY           SKY/WX    TMP DP  RH WIND       PRES   REMARKS
JACKSON        LGT RAIN  62  50  64 SE7       29.86F
LAMBERTVILLE   CLOUDY    65  52  62 SE10      29.88S
LANSING        LGT RAIN  62  52  69 S5        29.87R
LAPEER         MOCLDY    62  51  67 SE5       29.89F
MASON          CLOUDY    63  50  63 SE8       29.86F
PONTIAC        CLOUDY    62  53  72 SE6       29.88F
PORT HOPE        N/A     62  52  69 SE5       29.88F
PORT HURON     CLOUDY    63  54  72 SE5       29.92F
TRI CITIES     CLOUDY    59  59 100 NE7       29.88F
MIDLAND        CLOUDY    57  57 100 CALM      29.87F
TROY           CLOUDY    64  52  67 SE3       29.91F
SAGINAW HB     CLOUDY    59  55  88 N3        29.86F
$$
MIZ043>046-050>051-056>058-064>065-071>073-077>080-231400-
SOUTHWEST LOWER MICHIGAN

CITY           SKY/WX    TMP DP  RH WIND       PRES   REMARKS
BATTLE CREEK   RAIN      60  58  92 VRB5      29.85F FOG
BENTON HARBOR  RAIN      55  52  89 NE9       29.84F FOG
BIG RAPIDS     MIX PCPN  51  49  93 NW5       29.91R
COLDWATER      RAIN      61  53  74 SE6       29.84S
FREMONT        RAIN      51  51 100 N5        29.89F
HOLLAND        LGT RAIN  53  50  89 N10G18    29.86F
GRAND RAPIDS   LGT RAIN  54  54 100 N8        29.86F
IONIA          RAIN      57  56  99 N6        29.85F
KALAMAZOO      LGT RAIN  57  55  93 N7        29.84F FOG
LUDINGTON      RAIN      50  49  97 CALM      29.92R
MARSHALL       LGT RAIN  59  55  86 CALM      29.84F
MOUNT PLEASANT RAIN      56  54  94 NW3       29.88S
MUSKEGON       RAIN      52  51  97 N9        29.89F
SOUTH HAVEN    RAIN      53  52  95 N10       29.83F
$$
MIZ016>042-231400-
NORTHERN LOWER MICHIGAN

CITY           SKY/WX    TMP DP  RH WIND       PRES   REMARKS
ALPENA         LGT RAIN  52  52 100 N8        29.93F
BEAVER ISLAND  CLOUDY    48  48 100 CALM      29.92F
BELLAIRE       LGT RAIN  50  49  96 CALM      29.92S
CADILLAC       RAIN      51  48  90 NE6       29.90F
CHARLEVOIX     RAIN      51  51 100 E5        29.93F
FRANKFORT      RAIN      51  51 100 CALM      29.90
GAYLORD        LGT RAIN  47  45  93 NE6       29.91F
GRAYLING       RAIN      48  46  93 E6        29.94R
HARBOR SPRINGS RAIN      49  48  95 E5        29.92F
HOUGHTON LAKE  RAIN      49  47  93 NE10      29.91S FOG
MANISTEE       LGT RAIN  51  50  96 CALM      29.91S
OSCODA         CLOUDY    54  53  95 NE8       29.91F
PELLSTON       LGT RAIN  50  49  96 CALM      29.93F
ROGERS CITY    LGT RAIN  51  50  95 NW5       29.95R
TRAVERSE CITY  LGT RAIN  52  50  93 E3        29.90F FOG
$$
MIZ007>008-015-231400-
EASTERN UPPER MICHIGAN

CITY           SKY/WX    TMP DP  RH WIND       PRES   REMARKS
KINROSS        CLOUDY    48  48 100 S5        29.94F
MACKINAC ISLAN MIX PCPN  50  50 100 E5        29.94S
NEWBERRY       CLOUDY    43  42  97 CALM      29.92S
S. S. MARIE    CLOUDY    50  48  93 CALM      29.93F
MUNISING         N/A     42  42 100 S7        29.89F
$$
MIZ004>006-011>014-085-231400-
CENTRAL UPPER MICHIGAN

CITY           SKY/WX    TMP DP  RH WIND       PRES   REMARKS
MANISTIQUE     HAZE      37  32  82 CALM      29.92F VSB 1/4
ESCANABA       FOG       43  43 100 W3        29.92F VSB 1/4
MENOMINEE      FOG       42  42 100 CALM      29.91F VSB<1/4
$$
MIZ001>003-009>011-084-231400-
WESTERN UPPER MICHIGAN

CITY           SKY/WX    TMP DP  RH WIND       PRES   REMARKS
IRON MOUNTAIN  FOG       37  35  92 SE5       29.88F VSB 1/2 WCI  33
HOUGHTON       CLOUDY    45  39  79 S7        29.80F
COPPER HARBOR    N/A     49  41  74 SW7       29.81F
IRONWOOD       CLOUDY    48  38  68 S13G20    29.75F
$$

ABBREVIATIONS USED IN REMARKS
   TC - TEMPERATURE IN CELSIUS
  WCI - WIND CHILL INDEX
   HX - HEAT INDEX
  VSB - VISIBILITY





USA.gov is the U.S. government's official web portal to all federal, state and local government web resources and services.